This is the latest recevied weather packets stored in our database for station/object DL4MGC-10. If no packets are shown the sender has not sent any weather packets the latest 10 day(s).
| Time | Temp. | Humidity | Pressure | Rain* | Wind** | Luminosity | Snow |
|---|---|---|---|---|---|---|---|
| 1777800257 | 23.33° C | 50% | 1015.4 hPa | - | - | - | - |
| 1777799357 | 23.33° C | 51% | 1015.6 hPa | - | - | - | - |
| 1777798457 | 21.67° C | 52% | 1015.6 hPa | - | - | - | - |
| 1777797557 | 22.22° C | 54% | 1015.6 hPa | - | - | - | - |
| 1777796657 | 20.56° C | 55% | 1015.7 hPa | - | - | - | - |
| 1777795757 | 21.67° C | 55% | 1015.7 hPa | - | - | - | - |
| 1777794857 | 21.11° C | 63% | 1015.8 hPa | - | - | - | - |
| 1777793957 | 19.44° C | 59% | 1015.9 hPa | - | - | - | - |
| 1777793057 | 18.89° C | 58% | 1015.9 hPa | - | - | - | - |
| 1777792156 | 17.78° C | 61% | 1015.9 hPa | - | - | - | - |
| 1777791256 | 16.11° C | 65% | 1016 hPa | - | - | - | - |
| 1777790356 | 15° C | 67% | 1016 hPa | - | - | - | - |
| 1777789456 | 13.89° C | 69% | 1015.8 hPa | - | - | - | - |
| 1777788556 | 12.78° C | 72% | 1015.9 hPa | - | - | - | - |
| 1777787656 | 12.22° C | 74% | 1016 hPa | - | - | - | - |
| 1777786756 | 11.67° C | 75% | 1015.9 hPa | - | - | - | - |
| 1777785856 | 10.56° C | 77% | 1016.1 hPa | - | - | - | - |
| 1777784956 | 10.56° C | 77% | 1016 hPa | - | - | - | - |
| 1777784056 | 10° C | 79% | 1016 hPa | - | - | - | - |
| 1777783156 | 9.44° C | 79% | 1015.9 hPa | - | - | - | - |
| 1777782255 | 8.89° C | 82% | 1015.9 hPa | - | - | - | - |
| 1777781355 | 8.89° C | 82% | 1015.8 hPa | - | - | - | - |
| 1777780455 | 8.33° C | 84% | 1015.7 hPa | - | - | - | - |
| 1777779555 | 8.89° C | 82% | 1015.8 hPa | - | - | - | - |
| 1777778655 | 8.89° C | 81% | 1015.8 hPa | - | - | - | - |
* Rain since midnight (hover to see other rain measurements)
** Current wind speed in m/s (hover to see current wind gust speed)